Year,Month,Day,Hour,Minute,Value (Times are PST for temperature in C)
2012,07,13,00,00,21.60
2012,07,13,00,01,21.60
2012,07,13,00,02,21.60
2012,07,13,00,03,21.60
2012,07,13,00,04,21.60
2012,07,13,00,05,21.60
2012,07,13,00,06,21.60
2012,07,13,00,07,21.60
2012,07,13,00,08,21.60
2012,07,13,00,09,21.60
2012,07,13,00,10,21.70
2012,07,13,00,11,21.70
2012,07,13,00,12,21.70
2012,07,13,00,13,21.70
2012,07,13,00,14,21.70
2012,07,13,00,15,21.60
2012,07,13,00,16,21.60
2012,07,13,00,17,21.60
2012,07,13,00,18,21.60
2012,07,13,00,19,21.60
2012,07,13,00,20,21.60
2012,07,13,00,21,21.60
2012,07,13,00,22,21.60
2012,07,13,00,23,21.60
2012,07,13,00,24,21.60
2012,07,13,00,25,21.60
2012,07,13,00,26,21.60
2012,07,13,00,27,21.60
2012,07,13,00,28,21.60
2012,07,13,00,29,21.50
2012,07,13,00,30,21.50
2012,07,13,00,31,21.50
2012,07,13,00,32,21.40
2012,07,13,00,33,21.40
2012,07,13,00,34,21.40
2012,07,13,00,35,21.40
2012,07,13,00,36,21.40
2012,07,13,00,37,21.40
2012,07,13,00,38,21.40
2012,07,13,00,39,21.40
2012,07,13,00,40,21.30
2012,07,13,00,41,21.30
2012,07,13,00,42,21.30
2012,07,13,00,43,21.30
2012,07,13,00,44,21.30
2012,07,13,00,45,21.30
2012,07,13,00,46,21.20
2012,07,13,00,47,21.20
2012,07,13,00,48,21.20
2012,07,13,00,49,21.20
2012,07,13,00,50,21.20
2012,07,13,00,51,21.10
2012,07,13,00,52,21.10
2012,07,13,00,53,21.10
2012,07,13,00,54,21.10
2012,07,13,00,55,21.00
2012,07,13,00,56,21.00
2012,07,13,00,57,21.00
2012,07,13,00,58,21.00
2012,07,13,00,59,21.00
2012,07,13,01,00,21.00
2012,07,13,01,01,21.00
2012,07,13,01,02,21.00
2012,07,13,01,03,20.90
2012,07,13,01,04,20.90
2012,07,13,01,05,20.90
2012,07,13,01,06,20.90
2012,07,13,01,07,20.90
2012,07,13,01,08,20.90
2012,07,13,01,09,20.80
2012,07,13,01,10,20.80
2012,07,13,01,11,20.80
2012,07,13,01,12,20.80
2012,07,13,01,13,20.80
2012,07,13,01,14,20.80
2012,07,13,01,15,20.80
2012,07,13,01,16,20.80
2012,07,13,01,17,20.80
2012,07,13,01,18,20.80
2012,07,13,01,19,20.80
2012,07,13,01,20,20.80
2012,07,13,01,21,20.70
2012,07,13,01,22,20.70
2012,07,13,01,23,20.70
2012,07,13,01,24,20.70
2012,07,13,01,25,20.70
2012,07,13,01,26,20.70
2012,07,13,01,27,20.70
2012,07,13,01,28,20.60
2012,07,13,01,29,20.60
2012,07,13,01,30,20.60
2012,07,13,01,31,20.60
2012,07,13,01,32,20.60
2012,07,13,01,33,20.60
2012,07,13,01,34,20.50
2012,07,13,01,35,20.50
2012,07,13,01,36,20.50
2012,07,13,01,37,20.40
2012,07,13,01,38,20.40
2012,07,13,01,39,20.40
2012,07,13,01,40,20.40
2012,07,13,01,41,20.40
2012,07,13,01,42,20.40
2012,07,13,01,43,20.40
2012,07,13,01,44,20.40
2012,07,13,01,45,20.40
2012,07,13,01,46,20.40
2012,07,13,01,47,20.40
2012,07,13,01,48,20.40
2012,07,13,01,49,20.40
2012,07,13,01,50,20.40
2012,07,13,01,51,20.40
2012,07,13,01,52,20.40
2012,07,13,01,53,20.40
2012,07,13,01,54,20.40
2012,07,13,01,55,20.40
2012,07,13,01,56,20.40
2012,07,13,01,57,20.40
2012,07,13,01,58,20.40
2012,07,13,01,59,20.30
2012,07,13,02,00,20.30
2012,07,13,02,01,20.30
2012,07,13,02,02,20.30
2012,07,13,02,03,20.20
2012,07,13,02,04,20.20
2012,07,13,02,05,20.20
2012,07,13,02,06,20.20
2012,07,13,02,07,20.20
2012,07,13,02,08,20.20
2012,07,13,02,09,20.20
2012,07,13,02,10,20.20
2012,07,13,02,11,20.10
2012,07,13,02,12,20.10
2012,07,13,02,13,20.10
2012,07,13,02,14,20.10
2012,07,13,02,15,20.10
2012,07,13,02,16,20.10
2012,07,13,02,17,20.10
2012,07,13,02,18,20.10
2012,07,13,02,19,20.10
2012,07,13,02,20,20.10
2012,07,13,02,21,20.10
2012,07,13,02,22,20.10
2012,07,13,02,23,20.10
2012,07,13,02,24,20.10
2012,07,13,02,25,20.10
2012,07,13,02,26,20.10
2012,07,13,02,27,20.00
2012,07,13,02,28,20.00
2012,07,13,02,29,20.00
2012,07,13,02,30,20.00
2012,07,13,02,31,20.00
2012,07,13,02,32,19.90
2012,07,13,02,33,19.90
2012,07,13,02,34,19.90
2012,07,13,02,35,19.90
2012,07,13,02,36,19.90
2012,07,13,02,37,19.90
2012,07,13,02,38,19.80
2012,07,13,02,39,19.80
2012,07,13,02,40,19.80
2012,07,13,02,41,19.80
2012,07,13,02,42,19.80
2012,07,13,02,43,19.80
2012,07,13,02,44,19.70
2012,07,13,02,45,19.70
2012,07,13,02,46,19.70
2012,07,13,02,47,19.70
2012,07,13,02,48,19.70
2012,07,13,02,49,19.70
2012,07,13,02,50,19.70
2012,07,13,02,51,19.70
2012,07,13,02,52,19.60
2012,07,13,02,53,19.60
2012,07,13,02,54,19.60
2012,07,13,02,55,19.60
2012,07,13,02,56,19.60
2012,07,13,02,57,19.60
2012,07,13,02,58,19.60
2012,07,13,02,59,19.60
2012,07,13,03,00,19.50
2012,07,13,03,01,19.50
2012,07,13,03,02,19.50
2012,07,13,03,03,19.50
2012,07,13,03,04,19.50
2012,07,13,03,05,19.50
2012,07,13,03,06,19.50
2012,07,13,03,07,19.50
2012,07,13,03,08,19.50
2012,07,13,03,09,19.50
2012,07,13,03,10,19.50
2012,07,13,03,11,19.50
2012,07,13,03,12,19.50
2012,07,13,03,13,19.50
2012,07,13,03,14,19.50
2012,07,13,03,15,19.50
2012,07,13,03,16,19.50
2012,07,13,03,17,19.50
2012,07,13,03,18,19.40
2012,07,13,03,19,19.40
2012,07,13,03,20,19.40
2012,07,13,03,21,19.40
2012,07,13,03,22,19.40
2012,07,13,03,23,19.40
2012,07,13,03,24,19.40
2012,07,13,03,25,19.30
2012,07,13,03,26,19.30
2012,07,13,03,27,19.30
2012,07,13,03,28,19.30
2012,07,13,03,29,19.30
2012,07,13,03,30,19.20
2012,07,13,03,31,19.20
2012,07,13,03,32,19.20
2012,07,13,03,33,19.20
2012,07,13,03,34,19.10
2012,07,13,03,35,19.10
2012,07,13,03,36,19.10
2012,07,13,03,37,19.10
2012,07,13,03,38,19.10
2012,07,13,03,39,19.00
2012,07,13,03,40,19.00
2012,07,13,03,41,18.90
2012,07,13,03,42,18.90
2012,07,13,03,43,18.90
2012,07,13,03,44,18.90
2012,07,13,03,45,18.90
2012,07,13,03,46,18.90
2012,07,13,03,47,18.90
2012,07,13,03,48,18.90
2012,07,13,03,49,18.80
2012,07,13,03,50,18.80
2012,07,13,03,51,18.80
2012,07,13,03,52,18.80
2012,07,13,03,53,18.80
2012,07,13,03,54,18.80
2012,07,13,03,55,18.80
2012,07,13,03,56,18.80
2012,07,13,03,57,18.80
2012,07,13,03,58,18.80
2012,07,13,03,59,18.90
2012,07,13,04,00,18.90
2012,07,13,04,01,18.90
2012,07,13,04,02,18.90
2012,07,13,04,03,19.00
2012,07,13,04,04,19.10
2012,07,13,04,05,19.10
2012,07,13,04,06,19.10
2012,07,13,04,07,19.10
2012,07,13,04,08,19.20
2012,07,13,04,09,19.20
2012,07,13,04,10,19.20
2012,07,13,04,11,19.20
2012,07,13,04,12,19.20
2012,07,13,04,13,19.20
2012,07,13,04,14,19.20
2012,07,13,04,15,19.20
2012,07,13,04,16,19.20
2012,07,13,04,17,19.20
2012,07,13,04,18,19.20
2012,07,13,04,19,19.20
2012,07,13,04,20,19.20
2012,07,13,04,21,19.20
2012,07,13,04,22,19.20
2012,07,13,04,23,19.10
2012,07,13,04,24,19.10
2012,07,13,04,25,19.10
2012,07,13,04,26,19.10
2012,07,13,04,27,19.10
2012,07,13,04,28,19.10
2012,07,13,04,29,19.00
2012,07,13,04,30,19.00
2012,07,13,04,31,19.00
2012,07,13,04,32,18.90
2012,07,13,04,33,18.90
2012,07,13,04,34,18.90
2012,07,13,04,35,18.90
2012,07,13,04,36,18.90
2012,07,13,04,37,18.90
2012,07,13,04,38,18.90
2012,07,13,04,39,18.80
2012,07,13,04,40,18.80
2012,07,13,04,41,18.80
2012,07,13,04,42,18.80
2012,07,13,04,43,18.80
2012,07,13,04,44,18.80
2012,07,13,04,45,18.80
2012,07,13,04,46,18.80
2012,07,13,04,47,18.80
2012,07,13,04,48,18.80
2012,07,13,04,49,18.80
2012,07,13,04,50,18.80
2012,07,13,04,51,18.80
2012,07,13,04,52,18.80
2012,07,13,04,53,18.80
2012,07,13,04,54,18.70
2012,07,13,04,55,18.70
2012,07,13,04,56,18.70
2012,07,13,04,57,18.70
2012,07,13,04,58,18.70
2012,07,13,04,59,18.70
2012,07,13,05,00,18.70
2012,07,13,05,01,18.70
2012,07,13,05,02,18.70
2012,07,13,05,03,18.60
2012,07,13,05,04,18.60
2012,07,13,05,05,18.60
2012,07,13,05,06,18.60
2012,07,13,05,07,18.60
2012,07,13,05,08,18.60
2012,07,13,05,09,18.60
2012,07,13,05,10,18.60
2012,07,13,05,11,18.60
2012,07,13,05,12,18.60
2012,07,13,05,13,18.60
2012,07,13,05,14,18.60
2012,07,13,05,15,18.60
2012,07,13,05,16,18.60
2012,07,13,05,17,18.60
2012,07,13,05,18,18.60
2012,07,13,05,19,18.60
2012,07,13,05,20,18.60
2012,07,13,05,21,18.70
2012,07,13,05,22,18.70
2012,07,13,05,23,18.70
2012,07,13,05,24,18.70
2012,07,13,05,25,18.70
2012,07,13,05,26,18.70
2012,07,13,05,27,18.70
2012,07,13,05,28,18.70
2012,07,13,05,29,18.70
2012,07,13,05,30,18.70
2012,07,13,05,31,18.70
2012,07,13,05,32,18.70
2012,07,13,05,33,18.80
2012,07,13,05,34,18.80
2012,07,13,05,35,18.80
2012,07,13,05,36,18.80
2012,07,13,05,37,18.80
2012,07,13,05,38,18.80
2012,07,13,05,39,18.80
2012,07,13,05,40,18.80
2012,07,13,05,41,18.80
2012,07,13,05,42,18.80
2012,07,13,05,43,18.80
2012,07,13,05,44,18.80
2012,07,13,05,45,18.80
2012,07,13,05,46,18.80
2012,07,13,05,47,18.80
2012,07,13,05,48,18.80
2012,07,13,05,49,18.80
2012,07,13,05,50,18.80
2012,07,13,05,51,18.70
2012,07,13,05,52,18.70
2012,07,13,05,53,18.70
2012,07,13,05,54,18.70
2012,07,13,05,55,18.70
2012,07,13,05,56,18.70
2012,07,13,05,57,18.70
2012,07,13,05,58,18.70
2012,07,13,05,59,18.70
2012,07,13,06,00,18.70
2012,07,13,06,01,18.60
2012,07,13,06,02,18.60
2012,07,13,06,03,18.60
2012,07,13,06,04,18.60
2012,07,13,06,05,18.60
2012,07,13,06,06,18.60
2012,07,13,06,07,18.60
2012,07,13,06,08,18.60
2012,07,13,06,09,18.60
2012,07,13,06,10,18.60
2012,07,13,06,11,18.60
2012,07,13,06,12,18.60
2012,07,13,06,13,18.50
2012,07,13,06,14,18.50
2012,07,13,06,15,18.50
2012,07,13,06,16,18.50
2012,07,13,06,17,18.50
2012,07,13,06,18,18.50
2012,07,13,06,19,18.50
2012,07,13,06,20,18.50
2012,07,13,06,21,18.50
2012,07,13,06,22,18.50
2012,07,13,06,23,18.50
2012,07,13,06,24,18.50
2012,07,13,06,25,18.50
2012,07,13,06,26,18.60
2012,07,13,06,27,18.60
2012,07,13,06,28,18.60
2012,07,13,06,29,18.60
2012,07,13,06,30,18.60
2012,07,13,06,31,18.60
2012,07,13,06,32,18.70
2012,07,13,06,33,18.70
2012,07,13,06,34,18.70
2012,07,13,06,35,18.70
2012,07,13,06,36,18.70
2012,07,13,06,37,18.60
2012,07,13,06,38,18.60
2012,07,13,06,39,18.60
2012,07,13,06,40,18.60
2012,07,13,06,41,18.60
2012,07,13,06,42,18.70
2012,07,13,06,43,18.70
2012,07,13,06,44,18.70
2012,07,13,06,45,18.70
2012,07,13,06,46,18.80
2012,07,13,06,47,18.80
2012,07,13,06,48,18.80
2012,07,13,06,49,18.80
2012,07,13,06,50,18.80
2012,07,13,06,51,18.80
2012,07,13,06,52,18.80
2012,07,13,06,53,18.80
2012,07,13,06,54,18.80
2012,07,13,06,55,18.90
2012,07,13,06,56,18.90
2012,07,13,06,57,18.80
2012,07,13,06,58,18.80
2012,07,13,06,59,18.80
2012,07,13,07,00,18.80
2012,07,13,07,01,18.80
2012,07,13,07,02,18.80
2012,07,13,07,03,18.80
2012,07,13,07,04,18.70
2012,07,13,07,05,18.70
2012,07,13,07,06,18.70
2012,07,13,07,07,18.70
2012,07,13,07,08,18.70
2012,07,13,07,09,18.70
2012,07,13,07,10,18.70
2012,07,13,07,11,18.70
2012,07,13,07,12,18.70
2012,07,13,07,13,18.70
2012,07,13,07,14,18.70
2012,07,13,07,15,18.70
2012,07,13,07,16,18.70
2012,07,13,07,17,18.70
2012,07,13,07,18,18.70
2012,07,13,07,19,18.70
2012,07,13,07,20,18.70
2012,07,13,07,21,18.70
2012,07,13,07,22,18.70
2012,07,13,07,23,18.70
2012,07,13,07,24,18.70
2012,07,13,07,25,18.70
2012,07,13,07,26,18.70
2012,07,13,07,27,18.70
2012,07,13,07,28,18.70
2012,07,13,07,29,18.70
2012,07,13,07,30,18.70
2012,07,13,07,31,18.70
2012,07,13,07,32,18.70
2012,07,13,07,33,18.70
2012,07,13,07,34,18.70
2012,07,13,07,35,18.70
2012,07,13,07,36,18.70
2012,07,13,07,37,18.70
2012,07,13,07,38,18.80
2012,07,13,07,39,18.80
2012,07,13,07,40,18.80
2012,07,13,07,41,18.80
2012,07,13,07,42,18.80
2012,07,13,07,43,18.80
2012,07,13,07,44,18.80
2012,07,13,07,45,18.80
2012,07,13,07,46,18.80
2012,07,13,07,47,18.80
2012,07,13,07,48,18.80
2012,07,13,07,49,18.80
2012,07,13,07,50,18.80
2012,07,13,07,51,18.80
2012,07,13,07,52,18.80
2012,07,13,07,53,18.80
2012,07,13,07,54,18.80
2012,07,13,07,55,18.80
2012,07,13,07,56,18.80
2012,07,13,07,57,18.80
2012,07,13,07,58,18.80
2012,07,13,07,59,18.80
2012,07,13,08,00,18.80
2012,07,13,08,01,18.70
2012,07,13,08,02,18.70
2012,07,13,08,03,18.70
2012,07,13,08,04,18.80
2012,07,13,08,05,18.80
2012,07,13,08,06,18.80
2012,07,13,08,07,18.80
2012,07,13,08,08,18.90
2012,07,13,08,09,18.90
2012,07,13,08,10,19.00
2012,07,13,08,11,19.00
2012,07,13,08,12,19.10
2012,07,13,08,13,19.20
2012,07,13,08,14,19.20
2012,07,13,08,15,19.30
2012,07,13,08,16,19.40
2012,07,13,08,17,19.50
2012,07,13,08,18,19.60
2012,07,13,08,19,19.70
2012,07,13,08,20,19.80
2012,07,13,08,21,19.90
2012,07,13,08,22,19.90
2012,07,13,08,23,20.00
2012,07,13,08,24,20.10
2012,07,13,08,25,20.20
2012,07,13,08,26,20.30
2012,07,13,08,27,20.30
2012,07,13,08,28,20.40
2012,07,13,08,29,20.40
2012,07,13,08,30,20.50
2012,07,13,08,31,20.60
2012,07,13,08,32,20.70
2012,07,13,08,33,20.70
2012,07,13,08,34,20.80
2012,07,13,08,35,20.80
2012,07,13,08,36,20.80
2012,07,13,08,37,20.80
2012,07,13,08,38,20.80
2012,07,13,08,39,20.80
2012,07,13,08,40,20.80
2012,07,13,08,41,20.90
2012,07,13,08,42,20.90
2012,07,13,08,43,20.90
2012,07,13,08,44,21.00
2012,07,13,08,45,21.00
2012,07,13,08,46,21.00
2012,07,13,08,47,21.00
2012,07,13,08,48,21.00
2012,07,13,08,49,21.10
2012,07,13,08,50,21.10
2012,07,13,08,51,21.10
2012,07,13,08,52,21.20
2012,07,13,08,53,21.20
2012,07,13,08,54,21.10
2012,07,13,08,55,21.20
2012,07,13,08,56,21.20
2012,07,13,08,57,21.20
2012,07,13,08,58,21.10
2012,07,13,08,59,21.10
2012,07,13,09,00,21.00
2012,07,13,09,01,21.00
2012,07,13,09,02,21.00
2012,07,13,09,03,21.00
2012,07,13,09,04,21.00
2012,07,13,09,05,21.00
2012,07,13,09,06,21.00
2012,07,13,09,07,21.00
2012,07,13,09,08,21.10
2012,07,13,09,09,21.10
2012,07,13,09,10,21.10
2012,07,13,09,11,21.10
2012,07,13,09,12,21.10
2012,07,13,09,13,21.10
2012,07,13,09,14,21.00
2012,07,13,09,15,21.00
2012,07,13,09,16,21.00
2012,07,13,09,17,21.00
2012,07,13,09,18,21.10
2012,07,13,09,19,21.10
2012,07,13,09,20,21.20
2012,07,13,09,21,21.20
2012,07,13,09,22,21.30
2012,07,13,09,23,21.30
2012,07,13,09,24,21.30
2012,07,13,09,25,21.30
2012,07,13,09,26,21.40
2012,07,13,09,27,21.40
2012,07,13,09,28,21.40
2012,07,13,09,29,21.40
2012,07,13,09,30,21.40
2012,07,13,09,31,21.40
2012,07,13,09,32,21.40
2012,07,13,09,33,21.50
2012,07,13,09,34,21.50
2012,07,13,09,35,21.60
2012,07,13,09,36,21.60
2012,07,13,09,37,21.70
2012,07,13,09,38,21.70
2012,07,13,09,39,21.70
2012,07,13,09,40,21.70
2012,07,13,09,41,21.80
2012,07,13,09,42,21.90
2012,07,13,09,43,21.90
2012,07,13,09,44,22.00
2012,07,13,09,45,22.00
2012,07,13,09,46,22.10
2012,07,13,09,47,22.10
2012,07,13,09,48,22.10
2012,07,13,09,49,22.10
2012,07,13,09,50,22.20
2012,07,13,09,51,22.20
2012,07,13,09,52,22.20
2012,07,13,09,53,22.20
2012,07,13,09,54,22.20
2012,07,13,09,55,22.20
2012,07,13,09,56,22.30
2012,07,13,09,57,22.30
2012,07,13,09,58,22.30
2012,07,13,09,59,22.40
2012,07,13,10,00,22.40
2012,07,13,10,01,22.50
2012,07,13,10,02,22.50
2012,07,13,10,03,22.50
2012,07,13,10,04,22.60
2012,07,13,10,05,22.60
2012,07,13,10,06,22.70
2012,07,13,10,07,22.70
2012,07,13,10,08,22.70
2012,07,13,10,09,22.70
2012,07,13,10,10,22.70
2012,07,13,10,11,22.80
2012,07,13,10,12,22.80
2012,07,13,10,13,22.80
2012,07,13,10,14,22.80
2012,07,13,10,15,22.90
2012,07,13,10,16,22.90
2012,07,13,10,17,23.00
2012,07,13,10,18,23.10
2012,07,13,10,19,23.10
2012,07,13,10,20,23.10
2012,07,13,10,21,23.10
2012,07,13,10,22,23.00
2012,07,13,10,23,22.90
2012,07,13,10,24,22.70
2012,07,13,10,25,22.60
2012,07,13,10,26,22.60
2012,07,13,10,27,22.60
2012,07,13,10,28,22.60
2012,07,13,10,29,22.60
2012,07,13,10,30,22.70
2012,07,13,10,31,22.80
2012,07,13,10,32,22.90
2012,07,13,10,33,22.90
2012,07,13,10,34,22.90
2012,07,13,10,35,22.90
2012,07,13,10,36,22.90
2012,07,13,10,37,22.90
2012,07,13,10,38,22.90
2012,07,13,10,39,22.90
2012,07,13,10,40,23.00
2012,07,13,10,41,22.90
2012,07,13,10,42,23.00
2012,07,13,10,43,23.00
2012,07,13,10,44,22.90
2012,07,13,10,45,22.80
2012,07,13,10,46,22.70
2012,07,13,10,47,22.70
2012,07,13,10,48,22.60
2012,07,13,10,49,22.50
2012,07,13,10,50,22.40
2012,07,13,10,51,22.40
2012,07,13,10,52,22.50
2012,07,13,10,53,22.50
2012,07,13,10,54,22.60
2012,07,13,10,55,22.60
2012,07,13,10,56,22.70
2012,07,13,10,57,22.80
2012,07,13,10,58,22.80
2012,07,13,10,59,22.80
2012,07,13,11,00,22.80
2012,07,13,11,01,22.70
2012,07,13,11,02,22.70
2012,07,13,11,03,22.70
2012,07,13,11,04,22.70
2012,07,13,11,05,22.70
2012,07,13,11,06,22.70
2012,07,13,11,07,22.70
2012,07,13,11,08,22.70
2012,07,13,11,09,22.70
2012,07,13,11,10,22.70
2012,07,13,11,11,22.70
2012,07,13,11,12,22.70
2012,07,13,11,13,22.70
2012,07,13,11,14,22.70
2012,07,13,11,15,22.70
2012,07,13,11,16,22.60
2012,07,13,11,17,22.60
2012,07,13,11,18,22.50
2012,07,13,11,19,22.50
2012,07,13,11,20,22.40
2012,07,13,11,21,22.40
2012,07,13,11,22,22.40
2012,07,13,11,23,22.30
2012,07,13,11,24,22.30
2012,07,13,11,25,22.20
2012,07,13,11,26,22.20
2012,07,13,11,27,22.10
2012,07,13,11,28,22.00
2012,07,13,11,29,22.00
2012,07,13,11,30,21.90
2012,07,13,11,31,21.90
2012,07,13,11,32,22.00
2012,07,13,11,33,22.10
2012,07,13,11,34,22.20
2012,07,13,11,35,22.40
2012,07,13,11,36,22.50
2012,07,13,11,37,22.60
2012,07,13,11,38,22.60
2012,07,13,11,39,22.60
2012,07,13,11,40,22.70
2012,07,13,11,41,22.70
2012,07,13,11,42,22.60
2012,07,13,11,43,22.60
2012,07,13,11,44,22.60
2012,07,13,11,45,22.50
2012,07,13,11,46,22.50
2012,07,13,11,47,22.50
2012,07,13,11,48,22.40
2012,07,13,11,49,22.40
2012,07,13,11,50,22.40
2012,07,13,11,51,22.30
2012,07,13,11,52,22.30
2012,07,13,11,53,22.30
2012,07,13,11,54,22.20
2012,07,13,11,55,22.20
2012,07,13,11,56,22.20
2012,07,13,11,57,22.20
2012,07,13,11,58,22.20
2012,07,13,11,59,22.10
2012,07,13,12,00,22.10
2012,07,13,12,01,22.10
2012,07,13,12,02,22.00
2012,07,13,12,03,21.90
2012,07,13,12,04,21.90
2012,07,13,12,05,21.90
2012,07,13,12,06,21.90
2012,07,13,12,07,21.90
2012,07,13,12,08,21.90
2012,07,13,12,09,21.90
2012,07,13,12,10,21.80
2012,07,13,12,11,21.80
2012,07,13,12,12,21.80
2012,07,13,12,13,21.80
2012,07,13,12,14,21.70
2012,07,13,12,15,21.70
2012,07,13,12,16,21.80
2012,07,13,12,17,21.80
2012,07,13,12,18,21.80
2012,07,13,12,19,21.90
2012,07,13,12,20,21.90
2012,07,13,12,21,22.00
2012,07,13,12,22,22.00
2012,07,13,12,23,22.10
2012,07,13,12,24,22.10
2012,07,13,12,25,22.10
2012,07,13,12,26,22.00
2012,07,13,12,27,22.00
2012,07,13,12,28,22.00
2012,07,13,12,29,22.00
2012,07,13,12,30,22.10
2012,07,13,12,31,22.20
2012,07,13,12,32,22.30
2012,07,13,12,33,22.40
2012,07,13,12,34,22.40
2012,07,13,12,35,22.50
2012,07,13,12,36,22.60
2012,07,13,12,37,22.70
2012,07,13,12,38,22.80
2012,07,13,12,39,22.90
2012,07,13,12,40,22.90
2012,07,13,12,41,22.90
2012,07,13,12,42,23.00
2012,07,13,12,43,23.00
2012,07,13,12,44,23.10
2012,07,13,12,45,23.30
2012,07,13,12,46,23.30
2012,07,13,12,47,23.40
2012,07,13,12,48,23.40
2012,07,13,12,49,23.40
2012,07,13,12,50,23.40
2012,07,13,12,51,23.40
2012,07,13,12,52,23.40
2012,07,13,12,53,23.40
2012,07,13,12,54,23.40
2012,07,13,12,55,23.30
2012,07,13,12,56,23.40
2012,07,13,12,57,23.40
2012,07,13,12,58,23.40
2012,07,13,12,59,23.40
2012,07,13,13,00,23.40
2012,07,13,13,01,23.30
2012,07,13,13,02,23.30
2012,07,13,13,03,23.40
2012,07,13,13,04,23.40
2012,07,13,13,05,23.50
2012,07,13,13,06,23.60
2012,07,13,13,07,23.80
2012,07,13,13,08,23.80
2012,07,13,13,09,23.90
2012,07,13,13,10,24.00
2012,07,13,13,11,24.10
2012,07,13,13,12,24.10
2012,07,13,13,13,24.20
2012,07,13,13,14,24.20
2012,07,13,13,15,24.30
2012,07,13,13,16,24.30
2012,07,13,13,17,24.30
2012,07,13,13,18,24.30
2012,07,13,13,19,24.30
2012,07,13,13,20,24.30
2012,07,13,13,21,24.30
2012,07,13,13,22,24.40
2012,07,13,13,23,24.50
2012,07,13,13,24,24.60
2012,07,13,13,25,24.70
2012,07,13,13,26,24.80
2012,07,13,13,27,24.90
2012,07,13,13,28,25.00
2012,07,13,13,29,25.10
2012,07,13,13,30,25.00
2012,07,13,13,31,24.90
2012,07,13,13,32,24.90
2012,07,13,13,33,24.90
2012,07,13,13,34,24.80
2012,07,13,13,35,24.70
2012,07,13,13,36,24.50
2012,07,13,13,37,24.40
2012,07,13,13,38,24.30
2012,07,13,13,39,24.30
2012,07,13,13,40,24.30
2012,07,13,13,41,24.30
2012,07,13,13,42,24.30
2012,07,13,13,43,24.30
2012,07,13,13,44,24.30
2012,07,13,13,45,24.40
2012,07,13,13,46,24.40
2012,07,13,13,47,24.40
2012,07,13,13,48,24.40
2012,07,13,13,49,24.30
2012,07,13,13,50,24.20
2012,07,13,13,51,24.10
2012,07,13,13,52,24.10
2012,07,13,13,53,24.10
2012,07,13,13,54,24.10
2012,07,13,13,55,24.10
2012,07,13,13,56,24.20
2012,07,13,13,57,24.20
2012,07,13,13,58,24.20
2012,07,13,13,59,24.10
2012,07,13,14,00,24.00
2012,07,13,14,01,24.10
2012,07,13,14,02,24.00
2012,07,13,14,03,23.90
2012,07,13,14,04,23.80
2012,07,13,14,05,23.60
2012,07,13,14,06,23.50
2012,07,13,14,07,23.40
2012,07,13,14,08,23.40
2012,07,13,14,09,23.40
2012,07,13,14,10,23.30
2012,07,13,14,11,23.20
2012,07,13,14,12,23.10
2012,07,13,14,13,23.10
2012,07,13,14,14,23.10
2012,07,13,14,15,23.00
2012,07,13,14,16,23.00
2012,07,13,14,17,22.90
2012,07,13,14,18,22.90
2012,07,13,14,19,22.90
2012,07,13,14,20,23.00
2012,07,13,14,21,23.10
2012,07,13,14,22,23.10
2012,07,13,14,23,23.10
2012,07,13,14,24,23.10
2012,07,13,14,25,23.10
2012,07,13,14,26,23.20
2012,07,13,14,27,23.20
2012,07,13,14,28,23.20
2012,07,13,14,29,23.10
2012,07,13,14,30,23.10
2012,07,13,14,31,23.10
2012,07,13,14,32,23.10
2012,07,13,14,33,23.10
2012,07,13,14,34,23.10
2012,07,13,14,35,23.10
2012,07,13,14,36,23.10
2012,07,13,14,37,23.10
2012,07,13,14,38,23.20
2012,07,13,14,39,23.20
2012,07,13,14,40,23.20
2012,07,13,14,41,23.20
2012,07,13,14,42,23.20
2012,07,13,14,43,23.30
2012,07,13,14,44,23.30
2012,07,13,14,45,23.40
2012,07,13,14,46,23.50
2012,07,13,14,47,23.60
2012,07,13,14,48,23.60
2012,07,13,14,49,23.70
